| time (UTC) | temp C | wind direction | speed KPH | gust KPH | rain 1hr cm | rain 24hr cm | rain mn cm | humidity % | barometer mb |
| 20260504173635 | 11 | 8 | 22.5 | 27.4 | 0.00 | 0.00 | 0.00 | 44 | 1013.3 |
| 20260504173132 | 11 | 357 | 17.7 | 20.9 | 0.00 | 0.00 | 0.00 | 45 | 1013.4 |
| 20260504172629 | 11 | 8 | 25.7 | 29.0 | 0.00 | 0.00 | 0.00 | 46 | 1013.5 |
| 20260504172125 | 11 | 7 | 22.5 | 25.7 | 0.00 | 0.00 | 0.00 | 46 | 1013.3 |
| 20260504171621 | 11 | 354 | 19.3 | 25.7 | 0.00 | 0.00 | 0.00 | 47 | 1013.5 |
| 20260504171119 | 11 | 337 | 29.0 | 33.8 | 0.00 | 0.00 | 0.00 | 46 | 1013.3 |
| 20260504170615 | 11 | 12 | 17.7 | 20.9 | 0.00 | 0.00 | 0.00 | 46 | 1013.5 |
| 20260504170113 | 11 | 349 | 27.4 | 29.0 | 0.00 | 0.00 | 0.00 | 47 | 1013.5 |
| 20260504150958 | 10 | 354 | 35.4 | 48.3 | 0.00 | 0.00 | 0.00 | 48 | 1013.4 |
| 20260504150455 | 10 | 355 | 25.7 | 33.8 | 0.00 | 0.00 | 0.00 | 49 | 1013.3 |
| 20260504140922 | 8 | 15 | 22.5 | 24.1 | 0.00 | 0.00 | 0.00 | 52 | 1013.6 |
| 20260504140418 | 8 | 353 | 24.1 | 27.4 | 0.00 | 0.00 | 0.00 | 52 | 1013.6 |
| 20260504130343 | 7 | 327 | 30.6 | 37.0 | 0.00 | 0.00 | 0.00 | 51 | 1012.0 |
| 20260504120306 | 8 | 351 | 20.9 | 27.4 | 0.00 | 0.00 | 0.00 | 49 | 1011.3 |
| 20260504110230 | 9 | 10 | 12.9 | 16.1 | 0.00 | 0.00 | 0.00 | 46 | 1010.2 |
| 20260504100154 | 8 | 235 | 1.6 | 1.6 | 0.00 | 0.00 | 0.00 | 48 | 1008.6 |
| 20260504090116 | 10 | 237 | 1.6 | 1.6 | 0.00 | 0.00 | 0.00 | 43 | 1008.4 |
| 20260504081546 | 12 | 259 | 1.6 | 1.6 | 0.00 | 0.00 | 0.00 | 38 | 1008.6 |
| 20260504081042 | 12 | 221 | 1.6 | 1.6 | 0.00 | 0.00 | 0.00 | 38 | 1008.6 |
| 20260504080539 | 11 | 226 | 1.6 | 3.2 | 0.00 | 0.00 | 0.00 | 38 | 1008.6 |
| 20260504050352 | 10 | 225 | 0.0 | 0.0 | 0.00 | 0.00 | 0.00 | 42 | 1008.8 |
| 20260504045849 | 10 | 189 | 0.0 | 0.0 | 0.00 | 0.00 | 0.00 | 42 | 1008.8 |
| 20260504045344 | 10 | 184 | 0.0 | 0.0 | 0.00 | 0.00 | 0.00 | 42 | 1008.6 |
| 20260504044841 | 11 | 185 | 0.0 | 0.0 | 0.00 | 0.00 | 0.00 | 41 | 1008.7 |
| 20260504044338 | 11 | 194 | 0.0 | 0.0 | 0.00 | 0.00 | 0.00 | 42 | 1008.8 |
| 20260504043836 | 11 | 221 | 0.0 | 0.0 | 0.00 | 0.00 | 0.00 | 41 | 1008.8 |
| 20260504043332 | 12 | 198 | 0.0 | 0.0 | 0.00 | 0.00 | 0.00 | 40 | 1008.7 |
| 20260504042830 | 11 | 264 | 1.6 | 1.6 | 0.00 | 0.00 | 0.00 | 38 | 1008.8 |
| 20260504042326 | 12 | 216 | 0.0 | 1.6 | 0.00 | 0.00 | 0.00 | 40 | 1008.8 |
| 20260504041822 | 12 | 211 | 0.0 | 0.0 | 0.00 | 0.00 | 0.00 | 37 | 1008.9 |
| 20260504041319 | 13 | 214 | 0.0 | 0.0 | 0.00 | 0.00 | 0.00 | 34 | 1008.8 |
| 20260504040815 | 13 | 235 | 0.0 | 1.6 | 0.00 | 0.00 | 0.00 | 30 | 1008.9 |
| 20260504040313 | 13 | 232 | 0.0 | 1.6 | 0.00 | 0.00 | 0.00 | 30 | 1008.8 |
| 20260504035808 | 13 | 223 | 0.0 | 1.6 | 0.00 | 0.00 | 0.00 | 31 | 1008.9 |
| 20260504035306 | 13 | 211 | 0.0 | 0.0 | 0.00 | 0.00 | 0.00 | 32 | 1008.9 |
| 20260504034803 | 14 | 237 | 1.6 | 1.6 | 0.00 | 0.00 | 0.00 | 34 | 1008.8 |
| 20260504034301 | 15 | 228 | 0.0 | 0.0 | 0.00 | 0.00 | 0.00 | 32 | 1008.9 |
| 20260504033758 | 15 | 297 | 1.6 | 1.6 | 0.00 | 0.00 | 0.00 | 29 | 1008.6 |
| 20260504033255 | 15 | 323 | 3.2 | 3.2 | 0.00 | 0.00 | 0.00 | 29 | 1008.5 |
| 20260504032752 | 15 | 327 | 3.2 | 4.8 | 0.00 | 0.00 | 0.00 | 30 | 1008.7 |
| 20260504032249 | 15 | 339 | 3.2 | 3.2 | 0.00 | 0.00 | 0.00 | 31 | 1008.8 |
| 20260504031745 | 15 | 333 | 4.8 | 4.8 | 0.00 | 0.00 | 0.00 | 31 | 1008.6 |
| 20260504031243 | 16 | 348 | 4.8 | 4.8 | 0.00 | 0.00 | 0.00 | 31 | 1008.6 |
| 20260504030738 | 16 | 352 | 6.4 | 6.4 | 0.00 | 0.00 | 0.00 | 32 | 1008.7 |
| 20260504030236 | 16 | 357 | 6.4 | 6.4 | 0.00 | 0.00 | 0.00 | 31 | 1008.4 |
| 20260504025733 | 17 | 345 | 6.4 | 9.7 | 0.00 | 0.00 | 0.00 | 32 | 1008.6 |
| 20260504025229 | 17 | 332 | 6.4 | 6.4 | 0.00 | 0.00 | 0.00 | 28 | 1008.3 |
| 20260504024727 | 18 | 355 | 4.8 | 4.8 | 0.00 | 0.00 | 0.00 | 27 | 1008.4 |
| 20260504024223 | 18 | 27 | 3.2 | 4.8 | 0.00 | 0.00 | 0.00 | 27 | 1008.3 |
| 20260504023720 | 18 | 10 | 6.4 | 6.4 | 0.00 | 0.00 | 0.00 | 28 | 1008.6 |
| 20260504023216 | 18 | 4 | 6.4 | 6.4 | 0.00 | 0.00 | 0.00 | 31 | 1008.4 |
| 20260504022712 | 18 | 0 | 3.2 | 4.8 | 0.00 | 0.00 | 0.00 | 32 | 1008.2 |
| 20260504022208 | 18 | 358 | 3.2 | 3.2 | 0.00 | 0.00 | 0.00 | 29 | 1008.0 |
| 20260504021706 | 18 | 4 | 4.8 | 4.8 | 0.00 | 0.00 | 0.00 | 28 | 1008.2 |
| 20260504021203 | 18 | 18 | 4.8 | 4.8 | 0.00 | 0.00 | 0.00 | 28 | 1008.2 |
| 20260504020700 | 18 | 357 | 4.8 | 4.8 | 0.00 | 0.00 | 0.00 | 33 | 1008.2 |
| 20260504020155 | 18 | 335 | 4.8 | 4.8 | 0.00 | 0.00 | 0.00 | 32 | 1008.0 |
| 20260504015652 | 18 | 309 | 1.6 | 1.6 | 0.00 | 0.00 | 0.00 | 28 | 1008.3 |
| 20260504015149 | 19 | 257 | 0.0 | 1.6 | 0.00 | 0.00 | 0.00 | 27 | 1008.2 |
| 20260504014644 | 19 | 286 | 1.6 | 1.6 | 0.00 | 0.00 | 0.00 | 26 | 1008.4 |
| 20260504014142 | 20 | 246 | 1.6 | 1.6 | 0.00 | 0.00 | 0.00 | 26 | 1008.3 |
| 20260504013639 | 20 | 273 | 1.6 | 1.6 | 0.00 | 0.00 | 0.00 | 25 | 1008.2 |
| 20260504013136 | 20 | 296 | 1.6 | 3.2 | 0.00 | 0.00 | 0.00 | 24 | 1008.3 |
| 20260504012633 | 20 | 310 | 3.2 | 3.2 | 0.00 | 0.00 | 0.00 | 24 | 1008.3 |
| 20260504012131 | 21 | 303 | 3.2 | 4.8 | 0.00 | 0.00 | 0.00 | 24 | 1008.3 |
| 20260504011628 | 21 | 7 | 8.0 | 11.3 | 0.00 | 0.00 | 0.00 | 24 | 1008.3 |
| 20260504011124 | 21 | 304 | 3.2 | 4.8 | 0.00 | 0.00 | 0.00 | 26 | 1008.5 |
| 20260504010620 | 21 | 301 | 3.2 | 3.2 | 0.00 | 0.00 | 0.00 | 25 | 1008.7 |
| 20260504010116 | 21 | 314 | 3.2 | 3.2 | 0.00 | 0.00 | 0.00 | 23 | 1008.4 |
| 20260504005613 | 22 | 5 | 6.4 | 6.4 | 0.00 | 0.00 | 0.00 | 23 | 1008.5 |
| 20260504005110 | 21 | 318 | 6.4 | 6.4 | 0.00 | 0.00 | 0.00 | 24 | 1008.6 |
| 20260504004608 | 21 | 315 | 6.4 | 6.4 | 0.00 | 0.00 | 0.00 | 26 | 1008.6 |
| 20260504004105 | 21 | 338 | 4.8 | 6.4 | 0.00 | 0.00 | 0.00 | 26 | 1008.7 |
| 20260504003601 | 22 | 331 | 11.3 | 12.9 | 0.00 | 0.00 | 0.00 | 25 | 1008.7 |
| 20260504003058 | 22 | 343 | 11.3 | 12.9 | 0.00 | 0.00 | 0.00 | 26 | 1008.7 |
| 20260504002555 | 22 | 336 | 9.7 | 11.3 | 0.00 | 0.00 | 0.00 | 24 | 1008.8 |
| 20260504002053 | 22 | 337 | 8.0 | 11.3 | 0.00 | 0.00 | 0.00 | 25 | 1008.9 |
| 20260504001550 | 22 | 344 | 9.7 | 11.3 | 0.00 | 0.00 | 0.00 | 27 | 1008.8 |
| 20260504001046 | 22 | 0 | 11.3 | 12.9 | 0.00 | 0.00 | 0.00 | 24 | 1009.1 |
| 20260504000543 | 22 | 307 | 4.8 | 4.8 | 0.00 | 0.00 | 0.00 | 21 | 1008.8 |
| 20260504000041 | 22 | 11 | 3.2 | 4.8 | 0.00 | 0.00 | 0.00 | 22 | 1009.1 |
| 20260503235539 | 22 | 2 | 11.3 | 12.9 | 0.00 | 0.00 | 0.00 | 23 | 1009.1 |
| 20260503235035 | 23 | 29 | 9.7 | 11.3 | 0.00 | 0.00 | 0.00 | 21 | 1009.2 |
| 20260503234533 | 23 | 295 | 8.0 | 9.7 | 0.00 | 0.00 | 0.00 | 23 | 1009.1 |
| 20260503234031 | 23 | 326 | 11.3 | 12.9 | 0.00 | 0.00 | 0.00 | 23 | 1009.2 |
| 20260503233527 | 23 | 282 | 6.4 | 9.7 | 0.00 | 0.00 | 0.00 | 22 | 1009.3 |
| 20260503233023 | 22 | 272 | 1.6 | 1.6 | 0.00 | 0.00 | 0.00 | 25 | 1009.3 |
| 20260503232520 | 22 | 0 | 9.7 | 11.3 | 0.00 | 0.00 | 0.00 | 22 | 1009.5 |
| 20260503232018 | 22 | 355 | 17.7 | 20.9 | 0.00 | 0.00 | 0.00 | 24 | 1009.4 |
| 20260503231516 | 22 | 349 | 12.9 | 14.5 | 0.00 | 0.00 | 0.00 | 24 | 1009.4 |
| 20260503231012 | 23 | 298 | 4.8 | 4.8 | 0.00 | 0.00 | 0.00 | 25 | 1009.7 |
| 20260503230509 | 22 | 279 | 4.8 | 4.8 | 0.00 | 0.00 | 0.00 | 22 | 1009.5 |
| 20260503230006 | 23 | 352 | 22.5 | 25.7 | 0.00 | 0.00 | 0.00 | 25 | 1009.7 |
| 20260503225503 | 22 | 317 | 3.2 | 4.8 | 0.00 | 0.00 | 0.00 | 24 | 1009.7 |
| 20260503224958 | 22 | 6 | 4.8 | 6.4 | 0.00 | 0.00 | 0.00 | 22 | 1009.6 |
| 20260503224455 | 22 | 333 | 6.4 | 6.4 | 0.00 | 0.00 | 0.00 | 24 | 1009.5 |
| 20260503223953 | 22 | 357 | 12.9 | 16.1 | 0.00 | 0.00 | 0.00 | 25 | 1010.0 |
| 20260503223451 | 22 | 43 | 8.0 | 9.7 | 0.00 | 0.00 | 0.00 | 24 | 1009.9 |
| 20260503222946 | 22 | 342 | 12.9 | 12.9 | 0.00 | 0.00 | 0.00 | 23 | 1009.9 |
| 20260503222445 | 23 | 345 | 6.4 | 6.4 | 0.00 | 0.00 | 0.00 | 24 | 1010.1 |
| 20260503221943 | 23 | 355 | 8.0 | 9.7 | 0.00 | 0.00 | 0.00 | 24 | 1010.2 |
| 20260503221441 | 23 | 295 | 3.2 | 4.8 | 0.00 | 0.00 | 0.00 | 23 | 1010.0 |
| 20260503220937 | 23 | 264 | 6.4 | 6.4 | 0.00 | 0.00 | 0.00 | 24 | 1010.2 |
| 20260503220434 | 22 | 336 | 8.0 | 11.3 | 0.00 | 0.00 | 0.00 | 26 | 1010.4 |
| 20260503215931 | 22 | 196 | 4.8 | 4.8 | 0.00 | 0.00 | 0.00 | 24 | 1010.4 |
| 20260503215428 | 22 | 260 | 3.2 | 4.8 | 0.00 | 0.00 | 0.00 | 26 | 1010.5 |
| 20260503214925 | 22 | 325 | 9.7 | 11.3 | 0.00 | 0.00 | 0.00 | 26 | 1010.7 |
| 20260503214422 | 22 | 347 | 8.0 | 9.7 | 0.00 | 0.00 | 0.00 | 24 | 1010.5 |
| 20260503213920 | 22 | 176 | 0.0 | 1.6 | 0.00 | 0.00 | 0.00 | 24 | 1010.7 |
| 20260503213418 | 22 | 29 | 3.2 | 3.2 | 0.00 | 0.00 | 0.00 | 27 | 1010.8 |
| 20260503212914 | 22 | 27 | 3.2 | 4.8 | 0.00 | 0.00 | 0.00 | 24 | 1011.1 |
| 20260503212412 | 22 | 2 | 4.8 | 4.8 | 0.00 | 0.00 | 0.00 | 25 | 1011.2 |
| 20260503211909 | 22 | 25 | 11.3 | 12.9 | 0.00 | 0.00 | 0.00 | 27 | 1011.2 |
| 20260503211406 | 22 | 353 | 12.9 | 14.5 | 0.00 | 0.00 | 0.00 | 25 | 1011.5 |
| 20260503210901 | 22 | 238 | 1.6 | 1.6 | 0.00 | 0.00 | 0.00 | 26 | 1011.2 |
| 20260503210359 | 22 | 5 | 6.4 | 6.4 | 0.00 | 0.00 | 0.00 | 26 | 1011.5 |
| 20260503205859 | 22 | 46 | 8.0 | 14.5 | 0.00 | 0.00 | 0.00 | 26 | 1011.7 |
| 20260503205356 | 22 | 11 | 6.4 | 6.4 | 0.00 | 0.00 | 0.00 | 27 | 1011.6 |
| 20260503204852 | 22 | 31 | 4.8 | 6.4 | 0.00 | 0.00 | 0.00 | 26 | 1011.9 |
| 20260503204349 | 22 | 309 | 6.4 | 6.4 | 0.00 | 0.00 | 0.00 | 25 | 1011.9 |
| 20260503203847 | 21 | 280 | 3.2 | 3.2 | 0.00 | 0.00 | 0.00 | 27 | 1011.9 |
| 20260503203344 | 22 | 310 | 12.9 | 14.5 | 0.00 | 0.00 | 0.00 | 26 | 1012.0 |
| 20260503202841 | 21 | 55 | 1.6 | 1.6 | 0.00 | 0.00 | 0.00 | 25 | 1011.9 |
| 20260503202339 | 21 | 341 | 9.7 | 9.7 | 0.00 | 0.00 | 0.00 | 25 | 1011.9 |
| 20260503201837 | 21 | 53 | 4.8 | 4.8 | 0.00 | 0.00 | 0.00 | 26 | 1012.1 |
| 20260503201334 | 21 | 28 | 6.4 | 6.4 | 0.00 | 0.00 | 0.00 | 27 | 1012.3 |
| 20260503200832 | 21 | 145 | 9.7 | 12.9 | 0.00 | 0.00 | 0.00 | 26 | 1012.1 |
| 20260503200327 | 21 | 175 | 4.8 | 9.7 | 0.00 | 0.00 | 0.00 | 28 | 1012.3 |
| 20260503195825 | 21 | 166 | 9.7 | 11.3 | 0.00 | 0.00 | 0.00 | 27 | 1012.3 |
| 20260503195321 | 21 | 53 | 3.2 | 4.8 | 0.00 | 0.00 | 0.00 | 29 | 1012.4 |
| 20260503194819 | 21 | 6 | 4.8 | 4.8 | 0.00 | 0.00 | 0.00 | 28 | 1012.6 |
| 20260503194314 | 21 | 50 | 6.4 | 11.3 | 0.00 | 0.00 | 0.00 | 27 | 1012.6 |
| 20260503193810 | 21 | 191 | 1.6 | 1.6 | 0.00 | 0.00 | 0.00 | 29 | 1012.8 |
| 20260503193307 | 20 | 285 | 6.4 | 6.4 | 0.00 | 0.00 | 0.00 | 30 | 1012.6 |
| 20260503192803 | 20 | 47 | 6.4 | 6.4 | 0.00 | 0.00 | 0.00 | 28 | 1012.9 |
| 20260503192258 | 20 | 209 | 1.6 | 3.2 | 0.00 | 0.00 | 0.00 | 30 | 1013.0 |
| 20260503191755 | 21 | 59 | 12.9 | 14.5 | 0.00 | 0.00 | 0.00 | 29 | 1013.2 |
| 20260503191252 | 21 | 55 | 9.7 | 14.5 | 0.00 | 0.00 | 0.00 | 29 | 1013.2 |
| 20260503190748 | 21 | 47 | 6.4 | 11.3 | 0.00 | 0.00 | 0.00 | 29 | 1013.2 |
| 20260503190245 | 20 | 23 | 1.6 | 3.2 | 0.00 | 0.00 | 0.00 | 32 | 1012.9 |
| 20260503185743 | 21 | 329 | 9.7 | 11.3 | 0.00 | 0.00 | 0.00 | 33 | 1013.0 |
| 20260503185238 | 20 | 334 | 9.7 | 11.3 | 0.00 | 0.00 | 0.00 | 31 | 1013.2 |
| 20260503184733 | 20 | 301 | 1.6 | 3.2 | 0.00 | 0.00 | 0.00 | 29 | 1013.5 |
| 20260503184230 | 20 | 11 | 6.4 | 9.7 | 0.00 | 0.00 | 0.00 | 28 | 1013.6 |
| 20260503183726 | 20 | 6 | 11.3 | 12.9 | 0.00 | 0.00 | 0.00 | 30 | 1013.5 |
| 20260503183223 | 20 | 132 | 1.6 | 1.6 | 0.00 | 0.00 | 0.00 | 30 | 1013.7 |
| 20260503182721 | 20 | 338 | 3.2 | 4.8 | 0.00 | 0.00 | 0.00 | 31 | 1013.6 |
| 20260503182220 | 19 | 147 | 3.2 | 3.2 | 0.00 | 0.00 | 0.00 | 32 | 1013.8 |
| 20260503181715 | 19 | 41 | 9.7 | 12.9 | 0.00 | 0.00 | 0.00 | 33 | 1014.0 |
| 20260503181213 | 19 | 20 | 3.2 | 4.8 | 0.00 | 0.00 | 0.00 | 33 | 1013.8 |
| 20260503180709 | 19 | 350 | 3.2 | 4.8 | 0.00 | 0.00 | 0.00 | 32 | 1014.1 |
| 20260503180208 | 19 | 42 | 9.7 | 12.9 | 0.00 | 0.00 | 0.00 | 32 | 1014.4 |
| 20260503175704 | 18 | 17 | 3.2 | 4.8 | 0.00 | 0.00 | 0.00 | 33 | 1014.2 |
| 20260503175202 | 18 | 63 | 6.4 | 6.4 | 0.00 | 0.00 | 0.00 | 31 | 1014.3 |
| 20260503174657 | 20 | 345 | 11.3 | 16.1 | 0.00 | 0.00 | 0.00 | 32 | 1014.3 |
| 20260503174155 | 19 | 43 | 4.8 | 4.8 | 0.00 | 0.00 | 0.00 | 30 | 1014.4 |